Theta_e
317 317 317 317 318 318 318 317 318 321 320 318 317 316 316 317 317 316 316 316 316 317 317 317 317 317 317 317 318 317 317 317 317 316 315 316 317 318
318 316 314 315 317 317 317 317 317 318 321 317 316 316 315 316 316 317 317 316 317 317 317 317 317 317 317 317 317 317 317 317 318 317 317 316 315 315
317 317 317 317 317 316 317 317 316 317 317 317 317 317 316 317 317 318 317 317 317 317 317 317 317 317 317 317 317 317 317 316 317 318 317 317 316 315
317 319 319 318 318 318 318 317 317 317 316 316 317 317 318 317 317 317 317 317 317 317 317 316 316 317 317 316 317 317 317 317 317 317 317 317 317 316
320 320 320 321 320 320 319 318 318 317 317 317 318 318 318 318 318 317 317 316 317 317 316 316 316 317 317 317 317 317 317 317 317 317 317 318 317 316
319 320 320 320 320 321 320 320 320 320 319 318 318 318 319 319 319 318 318 318 317 317 316 316 316 316 316 316 316 316 316 316 316 316 317 317 316 316
319 318 319 319 319 319 320 320 320 320 319 319 319 319 319 319 319 318 318 317 317 318 318 317 316 315 315 315 315 315 315 315 315 315 315 315 315 314
319 319 319 318 318 318 318 319 319 320 319 319 318 317 317 317 317 317 317 317 317 316 316 316 316 315 315 313 312 312 313 312 311 310 309 306 304 304
318 318 318 318 318 317 317 317 318 318 318 318 317 316 316 316 316 316 316 316 316 316 316 315 314 311 305 305 307 305 304 302 302 301 299 297 293 292
318 318 317 317 317 316 316 316 315 316 316 316 314 314 315 314 315 315 315 315 315 312 311 310 298 290 290 292 292 293 293 292 291 290 290 289 289 289
315 315 312 313 313 316 315 315 314 314 312 312 306 302 299 299 302 307 304 305 309 296 293 292 289 285 284 284 283 285 286 286 286 286 287 287 288 288
302 297 294 296 298 303 307 307 308 308 305 298 295 291 292 292 293 294 293 296 296 291 288 288 287 286 283 281 282 284 284 284 284 284 285 284 284 284
287 285 285 286 291 296 299 300 298 293 290 290 287 285 284 283 282 284 285 287 285 281 282 285 284 284 283 281 280 280 281 281 281 281 281 280 281 281
282 282 282 281 281 283 284 285 286 286 283 281 279 279 279 278 279 280 280 280 279 279 281 283 281 282 282 282 282 280 279 279 279 278 278 278 279 279
281 280 280 280 281 281 282 283 283 281 279 278 278 278 278 278 279 278 278 278 279 279 279 280 279 280 281 281 280 279 280 277 276 276 276 275 275 275
280 280 279 279 278 279 279 279 279 279 279 279 279 278 278 277 278 278 278 277 276 275 275 275 276 277 277 277 278 276 275 276 274 274 274 274 274 274
280 280 280 280 279 279 278 277 278 278 278 278 278 278 277 277 276 276 276 276 275 274 273 273 274 274 275 276 275 274 273 273 273 273 273 273 273 274
279 279 278 278 277 277 277 277 276 276 276 276 276 276 275 275 275 274 274 274 274 273 273 272 273 274 273 273 273 272 272 272 272 272 272 272 273 274
277 276 276 276 275 275 275 274 274 273 273 273 274 274 273 273 274 273 273 273 272 272 271 271 272 272 275 274 272 270 271 271 271 272 272 273 273 274
274 274 274 274 274 273 272 272 272 272 271 271 271 271 272 272 272 272 272 272 272 271 271 270 270 270 271 272 271 271 269 270 271 272 273 273 273 273
272 272 272 272 271 271 270 270 270 269 269 270 270 270 270 270 270 270 269 269 270 270 270 270 269 268 269 270 272 272 271 270 269 270 271 272 274 275
269 269 269 269 269 269 268 269 268 268 268 268 268 268 268 268 268 268 269 269 269 269 269 269 268 269 270 270 271 271 271 271 271 271 271 271 272 276
267 267 266 266 267 266 266 266 266 266 266 266 267 267 267 267 267 267 268 268 268 268 268 268 269 269 269 269 269 270 270 271 272 273 274 273 273 273
Wind_Speed
36 36 32 30 30 24 26 22 18 10 9 12 12 22 22 28 27 37 40 30 32 33 31 32 33 34 35 39 40 40 41 42 43 46 47 48 48 50
34 37 37 30 33 31 32 30 27 22 12 22 21 27 31 33 36 33 35 37 42 40 40 39 39 38 36 40 42 41 41 41 42 43 43 43 46 47
33 34 36 35 33 33 30 32 30 27 18 27 25 26 31 36 37 41 46 45 44 42 49 46 42 44 43 43 46 48 48 45 46 46 44 45 44 44
33 30 34 36 34 34 35 37 34 35 30 30 36 36 35 38 43 41 45 47 54 53 56 48 53 55 50 50 47 52 53 53 50 49 46 47 46 44
34 33 31 29 31 31 31 32 31 29 31 31 34 35 34 34 32 41 48 45 43 51 56 56 54 54 53 52 55 55 56 55 50 49 49 48 45 45
31 32 32 33 34 33 32 34 33 32 31 31 34 35 33 35 32 33 33 35 36 38 43 49 49 53 54 52 52 51 51 49 50 50 49 45 45 46
32 36 37 37 39 39 35 36 32 32 32 31 30 32 32 31 32 35 34 37 38 36 36 34 35 36 41 45 46 45 45 45 44 41 41 42 44 43
31 33 38 41 45 46 47 49 43 35 35 35 34 33 38 38 37 36 35 31 18 31 35 38 35 35 33 30 36 42 40 37 33 36 35 33 33 36
35 34 33 34 37 38 40 49 53 55 56 48 39 38 37 38 38 38 36 35 35 35 32 29 25 27 23 28 33 32 26 22 23 24 24 21 16 12
32 36 37 37 35 38 41 38 40 48 53 58 55 50 40 35 33 33 35 37 36 32 30 19 10 5 7 7 9 9 14 17 17 15 14 14 14 14
27 21 20 24 23 29 32 35 34 36 34 40 19 18 19 22 27 36 26 18 17 5 2 1 4 13 17 21 22 19 19 18 16 13 10 9 7 6
5 8 16 11 12 16 21 22 20 16 17 10 9 5 6 6 8 6 10 13 7 4 6 2 11 6 4 10 12 14 14 14 10 8 5 3 3 2
18 22 24 21 15 10 6 4 1 9 14 17 20 20 21 23 21 19 15 9 10 10 7 4 5 6 6 6 8 10 10 10 10 9 9 6 4 3
20 19 20 25 29 26 26 25 26 25 24 27 26 26 24 27 28 30 29 31 30 27 16 8 9 7 5 6 5 6 9 9 9 8 5 3 5 6
22 21 21 23 26 30 27 25 25 28 28 28 23 24 18 21 16 18 22 25 28 29 24 22 18 14 12 8 5 5 1 5 8 8 7 8 8 8
20 23 25 27 29 26 28 28 25 22 22 22 20 16 15 16 16 14 11 10 20 20 20 19 16 13 11 10 9 7 6 4 6 6 8 9 9 10
18 20 22 22 23 23 24 23 21 20 19 16 15 14 14 14 15 14 13 15 17 13 14 13 10 12 12 8 9 8 6 7 9 10 10 12 13 13
22 22 21 20 20 18 18 18 18 17 15 14 13 12 12 12 12 13 14 14 14 13 13 13 11 4 5 10 9 6 6 8 10 11 11 13 18 15
24 20 19 19 18 17 16 16 16 14 12 12 12 12 11 12 12 13 13 12 12 12 13 13 14 13 6 4 3 5 9 11 12 12 12 14 20 22
20 18 17 16 15 15 14 14 13 12 13 12 12 12 12 12 12 12 11 11 10 10 11 12 13 12 9 5 5 8 10 10 12 15 16 19 23 25
16 16 14 14 13 12 11 11 11 12 11 11 12 12 12 11 11 11 11 12 10 10 10 10 10 8 7 6 7 10 11 10 12 16 18 20 19 18
13 13 12 11 10 10 9 9 10 10 10 11 11 10 11 10 11 10 10 10 10 9 9 8 9 8 7 8 11 15 17 19 15 15 13 13 11 6
11 10 10 10 10 10 9 10 9 8 9 8 8 8 9 9 9 9 9 9 9 9 9 9 9 9 8 10 11 14 17 20 24 23 13 9 13 20
Wind_Direction
223 225 228 233 235 228 230 233 236 245 239 242 241 256 259 274 275 256 256 252 258 260 264 268 272 267 270 269 264 261 260 261 262 262 261 262 262 262
232 232 235 235 241 239 239 238 248 258 265 260 260 265 264 263 263 262 260 259 266 262 260 264 272 274 278 274 266 263 262 265 266 266 265 264 263 264
236 239 240 242 241 240 234 245 244 248 250 263 260 264 261 253 252 257 254 252 258 273 266 262 266 267 270 270 273 272 270 269 269 269 268 267 263 262
227 231 237 241 240 239 241 235 238 246 241 251 252 252 245 247 254 252 255 253 259 271 274 260 266 265 266 269 268 270 270 272 272 268 267 267 267 260
231 232 237 238 237 238 237 238 238 240 243 245 255 251 249 249 248 251 252 255 257 262 269 274 272 268 266 266 263 268 270 270 272 268 269 266 260 258
235 237 238 237 238 238 237 239 241 243 242 240 249 256 254 254 249 253 255 253 254 254 258 263 265 270 272 270 269 272 270 270 269 267 266 262 259 261
237 240 241 241 243 242 240 244 241 240 242 244 245 252 256 255 247 251 251 258 257 257 259 258 260 265 264 269 269 270 271 272 270 267 263 265 265 264
237 239 242 248 253 251 247 246 244 242 241 245 248 249 251 254 256 253 254 255 258 255 249 253 253 253 260 261 263 270 273 276 274 268 262 258 230 216
245 246 247 247 249 249 251 251 252 250 248 248 249 246 251 249 251 252 249 250 255 259 256 253 244 240 251 257 258 262 265 262 256 239 220 207 203 206
247 251 251 253 252 251 250 247 248 253 254 254 253 259 261 257 246 248 252 254 256 253 248 248 238 98 94 96 100 141 159 159 157 156 156 162 172 173
260 266 267 257 257 257 258 254 252 248 248 251 245 244 244 259 266 260 266 269 261 266 329 45 115 104 92 90 84 92 103 113 120 117 125 134 147 155
55 21 17 4 329 297 277 276 276 280 233 213 172 56 51 47 14 327 304 260 249 124 24 23 137 130 97 70 81 97 99 96 92 94 95 108 139 169
58 48 42 44 43 36 26 6 238 165 118 104 94 86 76 65 59 64 67 80 99 64 31 140 126 107 100 126 84 55 66 68 72 60 52 52 4 354
63 62 58 53 55 62 72 89 105 109 97 87 74 60 58 64 66 72 72 77 76 71 65 77 70 78 101 91 87 63 58 50 65 67 57 330 309 307
73 70 67 66 65 66 71 82 87 86 85 79 74 72 74 77 71 68 69 72 77 72 66 70 69 69 80 88 115 58 29 45 38 23 340 318 313 308
72 73 69 68 67 67 65 65 70 73 77 79 79 79 76 70 64 56 57 55 61 54 52 56 57 63 67 73 96 80 37 6 351 345 326 318 307 296
80 73 67 64 64 63 62 62 63 64 66 71 76 75 70 66 56 52 51 58 67 57 45 43 61 72 76 88 72 53 24 348 334 333 328 312 300 291
74 68 63 60 59 59 60 60 58 59 59 61 60 61 65 68 70 64 62 61 66 59 50 35 36 60 73 62 64 50 2 333 322 318 316 305 299 295
69 65 62 56 54 53 52 52 52 49 53 60 63 59 60 65 66 67 69 71 68 62 54 40 34 31 37 31 341 4 347 329 321 317 308 297 289 291
62 62 60 56 53 52 49 49 49 50 53 56 61 65 65 63 64 64 62 64 66 60 55 45 36 26 16 344 320 308 325 315 318 315 310 301 292 296
61 58 55 54 54 54 55 60 64 59 59 62 60 60 61 68 66 65 63 59 60 56 51 39 19 1 343 330 321 324 326 313 309 304 306 308 311 312
61 66 66 66 68 67 64 59 55 55 54 54 56 59 62 64 65 63 60 56 49 44 39 25 13 9 4 356 341 333 332 331 336 323 296 271 285 303
65 64 63 66 64 60 62 59 59 50 53 52 56 54 58 57 54 55 54 51 43 37 26 17 12 9 4 354 337 334 336 342 345 347 351 342 308 290